Glen Ullin Rgnl, Glen Ullin,, ND

7:38 AM MDT on April 28, 2017 (GMT -0600)
Glen Ullin Rgnl, Glen Ullin,

Weather History for KD57 - January, 2014

Change the Weather History Date:

Monday, January 6, 2014

  Actual Average (KDIK) Record (KDIK)
Temperature  
Mean Temperature -8 °F -  
Max Temperature 3 °F 18 °F 53 °F (1914)
Min Temperature -20 °F 1 °F -31 °F (1909)
Degree Days  
Heating Degree Days 74    
Moisture  
Dew Point -19 °F    
Average Humidity 60    
Maximum Humidity 78    
Minimum Humidity 53    
Precipitation  
Precipitation 0.00 in - - ()
Sea Level Pressure  
Sea Level Pressure 30.20 in    
Wind  
Wind Speed 12 mph (WNW)    
Max Wind Speed 22 mph    
Max Gust Speed 22 mph    
Visibility 9 miles    
Events Snow    
Averages and records for this station are not official NWS values.
T = Trace of Precipitation, MM = Missing Value Source: NWS Daily Summary

Daily Weather History Graph

Daily Weather History Graph

Search for Another Location

Airport or City:

Trip Planner

Search our weather history database for the weather conditions in past years. The results will help you decide how hot, cold, wet, or windy it might be!

Date:

Astronomy

Jan. 06, 2014 Rise Set
Actual Time 7:31 AM MST 4:15 PM MST
Civil Twilight 6:57 AM MST 4:49 PM MST
Nautical Twilight 6:18 AM MST 5:28 PM MST
Astronomical Twilight 5:42 AM MST 6:04 PM MST
Moon 10:24 AM MST (1/6) 11:17 PM MST (1/6)
Length of Visible Light 9h 52m
Length of Day
8h 43m
Waxing Crescent, 35% of the Moon is Illuminated
Jan 6
Waxing Crescent
Jan 7
First Quarter
Jan 15
Full
Jan 23
Last Quarter
Jan 30
New

Hourly Weather History & Observations

Time (MST) Temp. Windchill Dew Point Humidity Pressure Visibility Wind Dir Wind Speed Gust Speed Precip Events Conditions
2:15 AM -18.4 °F -41.2 °F -29.2 °F 58% 30.39 in 10.0 mi NW 12.7 mph - N/A   Clear
2:35 AM -18.4 °F -41.2 °F -29.2 °F 58% 30.39 in 10.0 mi WNW 12.7 mph - N/A   Clear
2:55 AM -20.2 °F -45.2 °F -31.0 °F 58% 30.37 in 10.0 mi NW 15.0 mph - N/A   Clear
3:15 AM -20.2 °F -42.4 °F -31.0 °F 58% 30.37 in 10.0 mi WNW 11.5 mph - N/A   Clear
3:35 AM -20.2 °F -38.8 °F -31.0 °F 58% 30.37 in 10.0 mi NW 8.1 mph - N/A   Clear
3:55 AM -20.2 °F -41.3 °F -31.0 °F 58% 30.37 in 10.0 mi WNW 10.4 mph - N/A   Clear
4:15 AM -20.2 °F -44.4 °F -31.0 °F 58% 30.36 in 10.0 mi NW 13.8 mph - N/A   Clear
4:35 AM -20.2 °F -43.4 °F -31.0 °F 58% 30.37 in 10.0 mi NW 12.7 mph - N/A   Clear
4:55 AM -20.2 °F -44.4 °F -31.0 °F 58% 30.37 in 10.0 mi NW 13.8 mph - N/A   Clear
5:15 AM -20.2 °F -44.4 °F -29.2 °F 63% 30.36 in 10.0 mi NW 13.8 mph - N/A   Clear
5:35 AM -20.2 °F -45.2 °F -29.2 °F 63% 30.35 in 10.0 mi WNW 15.0 mph - N/A   Clear
5:55 AM -20.2 °F -45.2 °F -29.2 °F 63% 30.35 in 10.0 mi NW 15.0 mph - N/A   Clear
6:15 AM -18.4 °F -43.7 °F -29.2 °F 58% 30.35 in 10.0 mi NW 16.1 mph - N/A   Clear
6:35 AM -18.4 °F -45.2 °F -29.2 °F 58% 30.34 in 10.0 mi WNW 18.4 mph - N/A   Clear
6:55 AM -18.4 °F -43.7 °F -29.2 °F 58% 30.35 in 10.0 mi WNW 16.1 mph - N/A   Clear
7:15 AM -18.4 °F -43.7 °F -29.2 °F 58% 30.34 in 10.0 mi WNW 16.1 mph - N/A   Clear
7:35 AM -18.4 °F -40.2 °F -29.2 °F 58% 30.34 in 10.0 mi WNW 11.5 mph 18.4 mph N/A   Clear
7:55 AM -18.4 °F -42.1 °F -29.2 °F 58% 30.34 in 10.0 mi WNW 13.8 mph - N/A   Clear
8:15 AM -18.4 °F -39.1 °F -29.2 °F 58% 30.34 in 10.0 mi WNW 10.4 mph - N/A   Clear
8:35 AM -16.6 °F -41.4 °F -27.4 °F 58% 30.33 in 10.0 mi WNW 16.1 mph - N/A   Clear
8:55 AM -16.6 °F -41.4 °F -27.4 °F 58% 30.34 in 10.0 mi WNW 16.1 mph - N/A   Clear
9:15 AM -14.8 °F -38.3 °F -27.4 °F 53% 30.33 in 10.0 mi WNW 15.0 mph - N/A   Clear
9:35 AM -14.8 °F -39.8 °F -27.4 °F 53% 30.33 in 10.0 mi WNW 17.3 mph - N/A   Clear
9:55 AM -13.0 °F -38.2 °F -25.6 °F 53% 30.32 in 10.0 mi WNW 18.4 mph - N/A   Clear
10:15 AM -13.0 °F -39.4 °F -25.6 °F 53% 30.31 in 10.0 mi WNW 20.7 mph - N/A   Clear
10:35 AM -13.0 °F -40.0 °F -25.6 °F 53% 30.30 in 10.0 mi WNW 21.9 mph - N/A   Clear
10:55 AM -11.2 °F -36.4 °F -23.8 °F 54% 30.30 in 10.0 mi WNW 19.6 mph - N/A   Clear
11:15 AM -11.2 °F -35.8 °F -23.8 °F 54% 30.28 in 10.0 mi WNW 18.4 mph - N/A   Clear
11:35 AM -9.4 °F -32.8 °F -22.0 °F 54% 30.27 in 10.0 mi West 17.3 mph - N/A   Clear
11:55 AM -9.4 °F -32.8 °F -22.0 °F 54% 30.26 in 10.0 mi WNW 17.3 mph - N/A   Clear
12:15 PM -7.6 °F -29.1 °F -20.2 °F 54% 30.24 in 10.0 mi WNW 15.0 mph - N/A   Clear
12:35 PM -7.6 °F -30.5 °F -20.2 °F 54% 30.23 in 10.0 mi WNW 17.3 mph - N/A   Clear
12:55 PM -7.6 °F -29.8 °F -20.2 °F 54% 30.22 in 10.0 mi WNW 16.1 mph - N/A   Clear
1:15 PM -5.8 °F -24.4 °F -18.4 °F 55% 30.21 in 10.0 mi WNW 11.5 mph - N/A   Clear
1:35 PM -5.8 °F -23.4 °F -18.4 °F 55% 30.20 in 10.0 mi NW 10.4 mph - N/A   Clear
1:55 PM -4.0 °F -23.7 °F -16.6 °F 55% 30.19 in 10.0 mi NW 13.8 mph 21.9 mph N/A   Clear
2:15 PM -4.0 °F -23.0 °F -16.6 °F 55% 30.19 in 10.0 mi WNW 12.7 mph - N/A   Clear
2:35 PM -4.0 °F -17.8 °F -16.6 °F 55% 30.19 in 10.0 mi WNW 6.9 mph - N/A   Clear
2:55 PM -5.8 °F -22.4 °F -16.6 °F 60% 30.18 in 10.0 mi NW 9.2 mph - N/A   Clear
3:15 PM -5.8 °F -21.2 °F -16.6 °F 60% 30.17 in 10.0 mi NW 8.1 mph - N/A   Clear
3:35 PM -4.0 °F -21.2 °F -16.6 °F 55% 30.16 in 10.0 mi WNW 10.4 mph - N/A   Scattered Clouds
3:55 PM -4.0 °F -19.0 °F -16.6 °F 55% 30.15 in 10.0 mi WNW 8.1 mph - N/A   Overcast
4:15 PM -4.0 °F -19.0 °F -14.8 °F 60% 30.13 in 10.0 mi WNW 8.1 mph - N/A   Mostly Cloudy
4:35 PM -2.2 °F -15.6 °F -13.0 °F 60% 30.13 in 10.0 mi NW 6.9 mph - N/A   Overcast
4:55 PM -2.2 °F -15.6 °F -13.0 °F 60% 30.12 in 10.0 mi WNW 6.9 mph - N/A   Overcast
5:15 PM -2.2 °F -15.6 °F -13.0 °F 60% 30.10 in 10.0 mi West 6.9 mph - N/A   Overcast
5:35 PM -2.2 °F -12.5 °F -13.0 °F 60% 30.10 in 10.0 mi West 4.6 mph - N/A   Overcast
5:55 PM -0.4 °F - -13.0 °F 55% 30.09 in 10.0 mi Calm Calm - N/A   Overcast
6:15 PM -0.4 °F -8.3 °F -11.2 °F 60% 30.08 in 10.0 mi SW 3.5 mph - N/A   Overcast
6:35 PM -0.4 °F -12.0 °F -11.2 °F 60% 30.07 in 10.0 mi WSW 5.8 mph - N/A   Overcast
6:55 PM -0.4 °F -13.4 °F -9.4 °F 66% 30.07 in 10.0 mi SW 6.9 mph - N/A   Overcast
7:15 PM -0.4 °F -16.7 °F -9.4 °F 66% 30.07 in 10.0 mi SW 10.4 mph - N/A   Overcast
7:35 PM 1.4 °F -12.5 °F -9.4 °F 61% 30.05 in 9.0 mi SW 8.1 mph - N/A   Overcast
7:55 PM -0.4 °F -13.4 °F -7.6 °F 72% 30.04 in 5.0 mi SW 6.9 mph - N/A   Haze
8:15 PM 1.4 °F -11.3 °F -7.6 °F 66% 30.03 in 7.0 mi SW 6.9 mph - N/A Snow Light Snow
8:35 PM 1.4 °F -11.3 °F -7.6 °F 66% 30.02 in 9.0 mi SW 6.9 mph - N/A   Overcast
8:55 PM 1.4 °F - -7.6 °F 66% 30.01 in 4.0 mi Calm Calm - N/A Snow Light Snow
9:15 PM 1.4 °F -8.3 °F -5.8 °F 72% 29.98 in 3.0 mi SSE 4.6 mph - N/A Snow Light Snow
9:35 PM 1.4 °F -9.9 °F -5.8 °F 72% 29.97 in 8.0 mi South 5.8 mph - N/A   Overcast
9:55 PM 1.4 °F -11.3 °F -5.8 °F 72% 29.96 in 4.0 mi South 6.9 mph - N/A   Haze
10:15 PM 1.4 °F -9.9 °F -5.8 °F 72% 29.94 in 10.0 mi South 5.8 mph - N/A   Mostly Cloudy
10:35 PM 1.4 °F -11.3 °F -5.8 °F 72% 29.93 in 10.0 mi South 6.9 mph - N/A   Overcast
10:55 PM 1.4 °F -12.5 °F -4.0 °F 78% 29.92 in 10.0 mi South 8.1 mph - N/A   Overcast
11:15 PM 3.2 °F -9.1 °F -4.0 °F 72% 29.91 in 10.0 mi South 6.9 mph - N/A   Overcast
11:35 PM 3.2 °F -9.1 °F -4.0 °F 72% 29.91 in 2.0 mi South 6.9 mph - N/A Snow Light Snow
11:55 PM 3.2 °F -6.2 °F -4.0 °F 72% 29.90 in 6.0 mi SE 4.6 mph - N/A Snow Light Snow